Regional Weather Roundup
Issued by NWS

Home | Current Version | Previous Version | Graphics & Text | Print | Product List | Glossary Off
Versions: 1 2 3 4 5 6 7 8 9 10 11 12 13 14 15 16 17 18 19 20 21 22 23 24 25 26 27 28 29 30 31 32 33 34 35 36 37 38 39 40 41 42 43 44 45 46 47 48 49 50

000
ASUS43 KOAX 251410
RWRNE

WEATHER ROUNDUP FOR NEBRASKA
NATIONAL WEATHER SERVICE OMAHA NE
800 AM CST SAT FEB 25 2017

NOTES: SATELLITE DATA IS BEING USED TO AUGMENT CLOUD COVER ABOVE
       12000 FEET.
       "FAIR" INDICATES FEW OR NO CLOUDS BELOW 12,000 FEET WITH NO
       SIGNIFICANT WEATHER AND/OR OBSTRUCTIONS TO VISIBILITY.

  * THESE STATIONS DO NOT REPORT WEATHER SUCH AS RAIN...SNOW OR FOG.

NEZ001>004-019>022-054>056-251500-
NEBRASKA PANHANDLE

CITY           SKY/WX    TMP DP  RH WIND       PRES   REMARKS
SCOTTSBLUFF    CLOUDY    -1  -5  82 NW9       29.97S WCI -16
ALLIANCE       CLOUDY    -7 -11  83 W10       29.92F WCI -25
CHADRON        CLEAR      5   1  83 SW9       29.96S WCI  -9
KIMBALL        CLEAR     12   7  79 W10       29.94S WCI  -1
SIDNEY         CLEAR     11   4  73 W13       29.95S WCI  -4
$$

NEZ057>060-069>072-079>082-251500-
SOUTHWEST NEBRASKA

CITY           SKY/WX    TMP DP  RH WIND       PRES   REMARKS
NORTH PLATTE   CLOUDY     6   2  83 NE3       30.03F FOG
IMPERIAL       CLEAR     11   8  88 SW6       30.02S WCI   1
LEXINGTON      CLEAR      7   3  85 W3        30.08S
MCCOOK         CLEAR      9   8  96 SW6       30.08F WCI  -1
OGALLALA       CLOUDY     7   4  86 CALM      30.00F
$$

NEZ005>010-023>029-035>040-094-251500-
NORTH CENTRAL NEBRASKA

CITY           SKY/WX    TMP DP  RH WIND       PRES   REMARKS
VALENTINE      CLOUDY    -1  -5  82 W7        29.98F WCI -14
AINSWORTH      CLOUDY     9   7  89 SW9       29.98F WCI  -4
BROKEN BOW     CLOUDY     5   2  87 CALM      30.04S
O`NEILL        CLOUDY     7   6  92 SW5       30.05S WCI  -1
ORD            CLOUDY     4  -1  80 N3        30.07S
THEDFORD       CLOUDY     5   2  87 CALM      29.99F
$$

NEZ041-046>049-061>064-073>077-083>087-251500-
SOUTH CENTRAL NEBRASKA

CITY           SKY/WX    TMP DP  RH WIND       PRES   REMARKS
GRAND ISLAND   CLOUDY    11   8  88 W7        30.11S WCI   0
AURORA         CLOUDY    11   8  86 W3        30.11S
HASTINGS       CLOUDY    12   7  80 W7        30.13R WCI   1
HEBRON         CLOUDY    14  10  84 CALM      30.16R
HOLDREGE       CLEAR     11   6  81 SW3       30.10R
KEARNEY *      CLOUDY    10   3  72 CALM      30.11R
YORK           CLOUDY    10   7  85 W8        30.12S WCI  -1
$$

NEZ011>018-030>034-042>045-251500-
NORTHEAST NEBRASKA

CITY           SKY/WX    TMP DP  RH WIND       PRES   REMARKS
NORFOLK        CLOUDY    10   5  80 VRB6      30.08S WCI   0
ALBION         CLOUDY     7   2  81 CALM      30.09S
BLAIR          CLOUDY    15  12  87 W6        30.10R WCI   6
FREMONT        CLOUDY    15  11  85 W7        30.12S WCI   5
TEKAMAH        CLEAR     13   9  84 CALM      30.12R
WAYNE          CLOUDY    12   9  86 SW3       30.08S
$$

NEZ050>053-065>068-078-088>093-251500-
SOUTHEAST NEBRASKA

CITY           SKY/WX    TMP DP  RH WIND       PRES   REMARKS
LINCOLN        CLOUDY    16  10  77 SW3       30.16R
OMAHA EPPLEY   CLOUDY    18  12  77 W6        30.13R WCI  10
BEATRICE       CLOUDY    18  14  82 W7        30.15R WCI   9
FALLS CITY     CLEAR     20  14  77 W10       30.15R WCI   9
NEBRASKA CITY  CLOUDY    18  12  77 W9        30.13R WCI   7
PLATTSMOUTH    CLOUDY    17  12  78 W8        30.12R WCI   7
$$

NEZ044-045-051>053-067-251500-
OMAHA AREA

CITY           SKY/WX    TMP DP  RH WIND       PRES   REMARKS
OMAHA EPPLEY   CLOUDY    18  12  77 W6        30.13R WCI  10
BLAIR          CLOUDY    15  12  87 W6        30.10R WCI   6
FREMONT        CLOUDY    15  11  85 W7        30.12S WCI   5
MILLARD        CLOUDY    20  15  79 NW7       30.13S WCI  12
OFFUTT AFB     CLOUDY    16  10  79 VRB6      30.13R WCI   7
PLATTSMOUTH    CLOUDY    17  12  78 W8        30.12R WCI   7
WAHOO          FAIR      17  12  81 NW7       30.12S WCI   7
$$




USA.gov is the U.S. government's official web portal to all federal, state and local government web resources and services.